Flag for Madagascar Weather past 2 weeks in Toamasina, Madagascar

Now
61 °F

Passing clouds.


Feels Like: 61 °F
Forecast: 66 / 81 °F
Wind: No wind

Location: Tamatave

Current Time: Aug 22, 2014 at 5:29:19 AM

Latest Report: Aug 22, 2014 at 4:00 AM


Visibility: N/A

Pressure: 29.98 "Hg

Humidity: 100%

Dew point: 61 °F

Location of ToamasinaLocation

Historic Weather in Toamasina — Graph

°F

Toamasina temperature yesterday

Maximum temperature yesterday: 75 °F (at 11:00 AM)
Minimum temperature yesterday: 64 °F (at 9:00 PM)
Average temperature yesterday: 69 °F

Past Weeks' High & Low Weather Summary

 TemperatureHumidityPressure
High81 °F (Aug 15, 12:00 PM)100% (Aug 7, 7:00 AM)30.24 "Hg (Aug 7, 7:00 AM)
Low61 °F (Aug 17, 12:00 AM)57% (Aug 16, 5:00 PM)29.98 "Hg (Aug 22, 3:00 AM)
Average71 °F85%30.17 "Hg
* Reported Aug 7 4:00 AM — Aug 22 4:00 AM, Toamasina, Weather by CustomWeather, © 2014

Note: Actual official high and low records may vary slightly from our data, if they occured in-between our weather recording intervals... More about our weather records

Advertising

Toamasina weather history for previous 24 hours

 ConditionsComfort  
Time TempWeatherWind HumidityBarometerVisibility
4:00 AM
Aug 22
61 °FPassing clouds.No wind100%29.98 "HgN/A
3:00 AM61 °FPassing clouds.No wind100%29.98 "HgN/A
2:00 AM61 °FPassing clouds.No wind100%30.01 "HgN/A
1:00 AM63 °FPassing clouds.No wind94%30.04 "HgN/A
12:00 AM63 °FPassing clouds.No wind100%30.04 "HgN/A
11:00 PM
Aug 21
64 °FPassing clouds.No wind94%30.04 "HgN/A
10:00 PM64 °FPassing clouds.No wind94%30.07 "HgN/A
9:00 PM64 °FPassing clouds.No wind100%30.07 "HgN/A
8:00 PM66 °FPassing clouds.No wind94%30.07 "HgN/A
7:00 PM68 °FPassing clouds.No wind94%30.07 "HgN/A
6:00 PM70 °FScattered showers. Passing clouds.No wind94%30.04 "HgN/A
5:00 PM72 °FScattered showers. Broken clouds.5 mph88%30.04 "HgN/A
4:00 PM72 °FScattered showers. Broken clouds.5 mph88%30.04 "HgN/A
3:00 PM73 °FDrizzle. Broken clouds.5 mph83%30.04 "Hg5 mi
2:00 PM75 °FScattered showers. Broken clouds.5 mph83%30.04 "HgN/A
1:00 PM75 °FScattered showers. Broken clouds.7 mph83%30.07 "HgN/A
12:00 PM75 °FScattered showers. Broken clouds.5 mph78%30.09 "HgN/A
11:00 AM75 °FScattered showers. Broken clouds.2 mph83%30.12 "Hg6 mi
10:00 AM72 °FScattered showers. Broken clouds.5 mph88%30.12 "Hg6 mi
9:00 AM70 °FScattered showers. Broken clouds.7 mph100%30.12 "Hg6 mi
8:00 AM70 °FScattered showers. Broken clouds.No wind94%30.12 "Hg6 mi
7:00 AM68 °FScattered showers. Broken clouds.No wind94%30.12 "Hg6 mi
6:00 AM66 °FScattered showers. Broken clouds.No wind100%30.09 "HgN/A
5:00 AM66 °FScattered showers. Partly cloudy.No wind100%30.09 "HgN/A
Weather by CustomWeather, © 2014

See weather overviewHow to use our weather pages